Location: Alafon
(8.4500°N, 4.2333°E)
Time: 16:41:20
(UTC+00:00)

deb Explorer IX - Pass Details

Date: 30 July 2021
Orbit: 545 x 1091 km, 38.8° (Epoch: 20 September)

Event Time Altitude Azimuth Distance (km) Brightness Sun altitude
Rises 09:11:07 0° 203° (SSW) 2,691 ? 50.3°
Reaches altitude 10° 09:13:48 10° 185° (S) 1,807 ? 50.9°
Maximum altitude 09:16:49 20° 137° (SE) 1,326 ? 51.6°
Drops below altitude 10° 09:19:58 10° 89° (E) 1,895 ? 52.4°
Sets 09:22:52 0° 72° (ENE) 2,869 ? 53.1°
